{"data":{"norad_id":69162,"epoch":"2026-09-19T19:37:07.260960Z","epoch_age_seconds":82076,"freshness":"FRESH","line1":"1 69162U 26111Q   26262.81744515  .00015418  00000+0  46643-3 0  9992","line2":"2 69162  53.1579  68.9402 0002798  17.8001 342.3099 15.34403531 18792","mean_motion":15.34403531,"eccentricity":0.0002798,"inclination_deg":53.1579,"raan_deg":68.9402,"arg_perigee_deg":17.8001,"mean_anomaly_deg":342.3099,"bstar":0.00046643,"rev_number":1879,"period_min":93.847542117003,"perigee_km":460.77868118836,"apogee_km":464.60680951386,"semimajor_km":6840.8297453511,"source":"CELESTRAK","updated_at":"2026-09-20T09:00:44.092187Z"}}